Weather History for Devils Lake, ND

Change the Weather History Date:

Wednesday, February 27, 2013

  Actual Average Record
Temperature  
Mean Temperature 17 °F -  
Max Temperature 26 °F 28 °F 54 °F (1988)
Min Temperature 8 °F 10 °F -28 °F (1962)
Degree Days  
Heating Degree Days 48    
Moisture  
Dew Point 17 °F    
Average Humidity 90    
Maximum Humidity 100    
Minimum Humidity 73    
Precipitation  
Precipitation 0.00 in - - ()
Sea Level Pressure  
Sea Level Pressure 30.17 in    
Wind  
Wind Speed 13 mph (North)    
Max Wind Speed 26 mph    
Max Gust Speed 29 mph    
Visibility 10 miles    
Events      
Averages and records for this station are not official NWS values.
T = Trace of Precipitation, MM = Missing Value Source: NWS Daily Summary

Daily Weather History Graph

Daily Weather History Graph

Search for Another Location

Airport:

Trip Planner

Search our weather history database for the weather conditions in past years. The results will help you decide how hot, cold, wet, or windy it might be!

Date:

Astronomy

Feb. 27, 2013 Rise Set
Actual Time 7:19 AM CST 6:17 PM CST
Civil Twilight 6:48 AM CST 6:48 PM CST
Nautical Twilight 6:12 AM CST 7:24 PM CST
Astronomical Twilight 5:36 AM CST 8:00 PM CST
Moon 8:56 PM CST (2/27) 7:43 AM CST (2/27)
Length of Visible Light 11h 59m
Length of Day
10h 57m
Waning Gibbous, 96% of the Moon is Illuminated
Feb 27
Waning Gibbous
Mar 4
Last Quarter
Mar 11
New
Mar 19
First Quarter
Mar 27
Full

Hourly Weather History & Observations

Time (CST) Temp. Windchill Dew Point Humidity Pressure Visibility Wind Dir Wind Speed Gust Speed Precip Events Conditions
12:15 AM 15.8 °F 8.6 °F 15.8 °F 100% 30.08 in 10.0 mi NE 4.6 mph - N/A   Clear
12:35 AM 15.8 °F 8.6 °F 14.0 °F 93% 30.09 in 10.0 mi NNE 4.6 mph - N/A   Clear
12:55 AM 14.0 °F 6.5 °F 6.8 °F 73% 30.09 in 10.0 mi North 4.6 mph - N/A   Clear
1:15 AM 14.0 °F 8.2 °F 12.2 °F 93% 30.09 in 10.0 mi North 3.5 mph - N/A   Clear
1:35 AM 10.4 °F -0.4 °F 8.6 °F 92% 30.10 in 10.0 mi NNW 6.9 mph - N/A   Clear
1:55 AM 10.4 °F -1.5 °F 10.4 °F 100% 30.10 in 10.0 mi North 8.1 mph - N/A   Clear
2:15 AM 10.4 °F -2.4 °F 10.4 °F 100% 30.10 in 10.0 mi NNW 9.2 mph - N/A   Clear
2:35 AM 8.6 °F -3.7 °F 8.6 °F 100% 30.11 in 10.0 mi NNW 8.1 mph - N/A   Clear
2:55 AM 10.4 °F -1.5 °F 10.4 °F 100% 30.10 in 10.0 mi North 8.1 mph - N/A   Partly Cloudy
3:15 AM 10.4 °F -0.4 °F 10.4 °F 100% 30.10 in 10.0 mi North 6.9 mph - N/A   Mostly Cloudy
3:35 AM 14.0 °F 2.0 °F 14.0 °F 100% 30.10 in 10.0 mi North 9.2 mph - N/A   Overcast
3:55 AM 15.8 °F 4.2 °F 14.0 °F 93% 30.10 in 10.0 mi North 9.2 mph - N/A   Overcast
4:15 AM 17.6 °F 5.7 °F 15.8 °F 93% 30.11 in 10.0 mi North 10.4 mph - N/A   Overcast
4:35 AM 17.6 °F 5.0 °F 15.8 °F 93% 30.11 in 10.0 mi North 11.5 mph - N/A   Overcast
4:55 AM 17.6 °F 5.7 °F 17.6 °F 100% 30.11 in 10.0 mi North 10.4 mph - N/A   Overcast
5:15 AM 19.4 °F 9.5 °F 17.6 °F 93% 30.12 in 10.0 mi North 8.1 mph - N/A   Overcast
5:35 AM 19.4 °F 7.2 °F 17.6 °F 93% 30.12 in 10.0 mi North 11.5 mph - N/A   Overcast
5:55 AM 19.4 °F 7.2 °F 17.6 °F 93% 30.13 in 10.0 mi North 11.5 mph - N/A   Overcast
6:15 AM 19.4 °F 7.9 °F 17.6 °F 93% 30.13 in 10.0 mi NNW 10.4 mph - N/A   Overcast
6:35 AM 19.4 °F 6.6 °F 17.6 °F 93% 30.14 in 10.0 mi North 12.7 mph - N/A   Overcast
6:55 AM 21.2 °F 9.5 °F 19.4 °F 93% 30.14 in 10.0 mi North 11.5 mph - N/A   Overcast
7:15 AM 21.2 °F 8.9 °F 19.4 °F 93% 30.15 in 10.0 mi North 12.7 mph - N/A   Overcast
7:35 AM 21.2 °F 8.3 °F 19.4 °F 93% 30.15 in 10.0 mi North 13.8 mph - N/A   Overcast
7:55 AM 21.2 °F 7.3 °F 19.4 °F 93% 30.15 in 10.0 mi North 16.1 mph - N/A   Overcast
8:15 AM 21.2 °F 6.8 °F 19.4 °F 93% 30.16 in 10.0 mi North 17.3 mph - N/A   Overcast
8:35 AM 21.2 °F 6.8 °F 19.4 °F 93% 30.16 in 10.0 mi North 17.3 mph - N/A   Overcast
8:55 AM 21.2 °F 6.8 °F 19.4 °F 93% 30.17 in 10.0 mi North 17.3 mph - N/A   Overcast
9:15 AM 21.2 °F 6.4 °F 19.4 °F 93% 30.17 in 10.0 mi North 18.4 mph - N/A   Overcast
9:35 AM 23.0 °F 8.0 °F 19.4 °F 86% 30.17 in 10.0 mi North 20.7 mph - N/A   Overcast
9:55 AM 21.2 °F 5.6 °F 19.4 °F 93% 30.18 in 10.0 mi North 20.7 mph - N/A   Overcast
10:15 AM 23.0 °F 8.3 °F 21.2 °F 93% 30.18 in 10.0 mi North 19.6 mph - N/A   Overcast
10:35 AM 24.8 °F 10.3 °F 19.4 °F 80% 30.18 in 10.0 mi North 20.7 mph 26.5 mph N/A   Overcast
10:55 AM 24.8 °F 10.3 °F 23.0 °F 93% 30.18 in 10.0 mi North 20.7 mph - N/A   Overcast
11:15 AM 24.8 °F 10.0 °F 19.4 °F 80% 30.19 in 10.0 mi North 21.9 mph - N/A   Overcast
11:35 AM 24.8 °F 9.3 °F 21.2 °F 86% 30.18 in 10.0 mi North 24.2 mph - N/A   Overcast
11:55 AM 24.8 °F 10.0 °F 21.2 °F 86% 30.19 in 10.0 mi North 21.9 mph - N/A   Overcast
12:15 PM 24.8 °F 9.3 °F 21.2 °F 86% 30.19 in 10.0 mi North 24.2 mph - N/A   Overcast
12:35 PM 24.8 °F 9.3 °F 21.2 °F 86% 30.18 in 10.0 mi North 24.2 mph 28.8 mph N/A   Overcast
12:55 PM 24.8 °F 9.0 °F 21.2 °F 86% 30.18 in 10.0 mi North 25.3 mph - N/A   Mostly Cloudy
1:15 PM 24.8 °F 8.7 °F 21.2 °F 86% 30.18 in 10.0 mi North 26.5 mph - N/A   Mostly Cloudy
1:35 PM 24.8 °F 9.6 °F 21.2 °F 86% 30.19 in 10.0 mi North 23.0 mph - N/A   Mostly Cloudy
1:55 PM 24.8 °F 9.0 °F 21.2 °F 86% 30.19 in 10.0 mi North 25.3 mph - N/A   Mostly Cloudy
2:15 PM 24.8 °F 10.7 °F 21.2 °F 86% 30.19 in 10.0 mi North 19.6 mph - N/A   Scattered Clouds
2:55 PM 24.8 °F 9.3 °F 21.2 °F 86% 30.19 in 10.0 mi North 24.2 mph - N/A   Clear
3:15 PM 24.8 °F 10.0 °F 19.4 °F 80% 30.20 in 10.0 mi North 21.9 mph - N/A   Clear
3:35 PM 24.8 °F 10.3 °F 21.2 °F 86% 30.21 in 10.0 mi North 20.7 mph - N/A   Clear
3:55 PM 24.8 °F 9.6 °F 21.2 °F 86% 30.20 in 10.0 mi North 23.0 mph - N/A   Clear
4:15 PM 26.6 °F 12.7 °F 21.2 °F 80% 30.21 in 10.0 mi North 20.7 mph - N/A   Clear
4:35 PM 24.8 °F 10.3 °F 21.2 °F 86% 30.21 in 10.0 mi North 20.7 mph - N/A   Clear
4:55 PM 24.8 °F 10.7 °F 21.2 °F 86% 30.22 in 10.0 mi North 19.6 mph - N/A   Clear
5:15 PM 24.8 °F 11.1 °F 19.4 °F 80% 30.22 in 10.0 mi North 18.4 mph - N/A   Clear
5:35 PM 24.8 °F 11.1 °F 19.4 °F 80% 30.23 in 10.0 mi North 18.4 mph - N/A   Clear
5:55 PM 23.0 °F 8.7 °F 19.4 °F 86% 30.23 in 10.0 mi North 18.4 mph - N/A   Clear
6:15 PM 23.0 °F 8.7 °F 19.4 °F 86% 30.23 in 10.0 mi North 18.4 mph - N/A   Clear
9:35 PM 17.6 °F 2.7 °F 14.0 °F 86% 30.25 in 10.0 mi North 16.1 mph - N/A   Clear
9:55 PM 17.6 °F 2.2 °F 12.2 °F 79% 30.25 in 10.0 mi North 17.3 mph - N/A   Clear
10:15 PM 17.6 °F 2.2 °F 14.0 °F 86% 30.25 in 10.0 mi North 17.3 mph - N/A   Clear
10:35 PM 15.8 °F -0.6 °F 15.8 °F 100% 30.24 in 10.0 mi North 18.4 mph - N/A   Mostly Cloudy
10:55 PM 17.6 °F 1.3 °F 14.0 °F 86% 30.24 in 10.0 mi North 19.6 mph - N/A   Overcast
11:15 PM 17.6 °F 2.2 °F 15.8 °F 93% 30.24 in 10.0 mi North 17.3 mph - N/A   Overcast
11:35 PM 17.6 °F 2.2 °F 15.8 °F 93% 30.24 in 10.0 mi North 17.3 mph - N/A   Overcast
11:55 PM 15.8 °F 0.9 °F 14.0 °F 93% 30.25 in 10.0 mi North 15.0 mph - N/A   Scattered Clouds